| time (UTC) | temp C | wind direction | speed KPH | gust KPH | rain 1hr cm | rain 24hr cm | rain mn cm | humidity % | barometer mb |
| 20260509075433 | 12 | 299 | 4.8 | 14.5 | 0.00 | 0.00 | 0.00 | 84 | 1016.0 |
| 20260509074933 | 12 | 288 | 4.8 | 14.5 | 0.00 | 0.00 | 0.00 | 84 | 1016.1 |
| 20260509074420 | 12 | 147 | 4.8 | 11.3 | 0.00 | 0.00 | 0.00 | 84 | 1016.0 |
| 20260509073927 | 12 | 48 | 4.8 | 11.3 | 0.00 | 0.00 | 0.00 | 84 | 1016.1 |
| 20260509073431 | 12 | 351 | 3.2 | 8.0 | 0.00 | 0.00 | 0.00 | 84 | 1016.1 |
| 20260509072920 | 12 | 88 | 4.8 | 8.0 | 0.00 | 0.00 | 0.00 | 84 | 1016.0 |
| 20260509072447 | 12 | 48 | 4.8 | 8.0 | 0.00 | 0.00 | 0.00 | 84 | 1016.1 |
| 20260509071932 | 12 | 45 | 1.6 | 9.7 | 0.00 | 0.00 | 0.00 | 84 | 1016.2 |
| 20260509071435 | 12 | 101 | 4.8 | 9.7 | 0.00 | 0.00 | 0.00 | 84 | 1016.1 |
| 20260509070922 | 12 | 300 | 4.8 | 12.9 | 0.00 | 0.00 | 0.00 | 84 | 1016.1 |
| 20260509070431 | 12 | 62 | 4.8 | 16.1 | 0.00 | 0.00 | 0.00 | 84 | 1016.1 |
| 20260509065937 | 12 | 284 | 6.4 | 20.9 | 0.00 | 0.00 | 0.00 | 84 | 1016.1 |
| 20260509065424 | 12 | 225 | 9.7 | 19.3 | 0.00 | 0.00 | 0.00 | 84 | 1016.3 |
| 20260509064953 | 12 | 31 | 3.2 | 16.1 | 0.00 | 0.00 | 0.00 | 84 | 1016.4 |
| 20260509064420 | 12 | 273 | 9.7 | 16.1 | 0.00 | 0.00 | 0.00 | 84 | 1016.3 |
| 20260509063924 | 12 | 360 | 4.8 | 8.0 | 0.00 | 0.00 | 0.00 | 84 | 1016.4 |
| 20260509063431 | 12 | 134 | 4.8 | 20.9 | 0.00 | 0.00 | 0.00 | 84 | 1016.3 |
| 20260509062938 | 12 | 5 | 6.4 | 20.9 | 0.00 | 0.00 | 0.00 | 84 | 1016.4 |
| 20260509062425 | 12 | 239 | 6.4 | 16.1 | 0.00 | 0.00 | 0.00 | 85 | 1016.3 |
| 20260509061934 | 12 | 263 | 9.7 | 16.1 | 0.00 | 0.00 | 0.00 | 85 | 1016.5 |
| 20260509061421 | 12 | 242 | 8.0 | 14.5 | 0.00 | 0.00 | 0.00 | 85 | 1016.4 |
| 20260509060927 | 12 | 282 | 4.8 | 17.7 | 0.00 | 0.00 | 0.00 | 85 | 1016.5 |
| 20260509060430 | 12 | 134 | 3.2 | 17.7 | 0.00 | 0.00 | 0.00 | 85 | 1016.5 |
| 20260509055936 | 12 | 277 | 9.7 | 24.1 | 0.00 | 0.00 | 0.00 | 85 | 1016.6 |
| 20260509055422 | 12 | 261 | 8.0 | 24.1 | 0.00 | 0.00 | 0.00 | 85 | 1016.6 |
| 20260509054958 | 12 | 268 | 9.7 | 24.1 | 0.00 | 0.00 | 0.00 | 85 | 1016.6 |
| 20260509054423 | 12 | 263 | 17.7 | 24.1 | 0.00 | 0.00 | 0.00 | 85 | 1016.6 |
| 20260509053932 | 12 | 280 | 9.7 | 20.9 | 0.00 | 0.00 | 0.00 | 85 | 1016.6 |
| 20260509053439 | 12 | 256 | 8.0 | 29.0 | 0.00 | 0.00 | 0.00 | 85 | 1016.7 |
| 20260509052923 | 12 | 207 | 9.7 | 29.0 | 0.00 | 0.00 | 0.00 | 85 | 1016.6 |
| 20260509052425 | 12 | 273 | 11.3 | 25.7 | 0.00 | 0.00 | 0.00 | 85 | 1016.6 |
| 20260509051933 | 12 | 264 | 14.5 | 25.7 | 0.00 | 0.00 | 0.00 | 84 | 1016.5 |
| 20260509051440 | 12 | 232 | 12.9 | 32.2 | 0.00 | 0.00 | 0.00 | 84 | 1016.6 |
| 20260509050955 | 12 | 221 | 19.3 | 32.2 | 0.00 | 0.00 | 0.00 | 84 | 1016.5 |
| 20260509050439 | 12 | 268 | 14.5 | 33.8 | 0.00 | 0.00 | 0.00 | 84 | 1016.6 |
| 20260509045927 | 12 | 265 | 14.5 | 32.2 | 0.00 | 0.00 | 0.00 | 84 | 1016.5 |
| 20260509045434 | 12 | 270 | 16.1 | 32.2 | 0.00 | 0.00 | 0.00 | 84 | 1016.5 |
| 20260509044935 | 12 | 242 | 11.3 | 33.8 | 0.00 | 0.00 | 0.00 | 84 | 1016.3 |
| 20260509044420 | 12 | 252 | 19.3 | 33.8 | 0.00 | 0.00 | 0.00 | 84 | 1016.4 |
| 20260509043926 | 12 | 257 | 11.3 | 24.1 | 0.00 | 0.00 | 0.00 | 84 | 1016.3 |
| 20260509043424 | 12 | 242 | 9.7 | 25.7 | 0.00 | 0.00 | 0.00 | 84 | 1016.4 |
| 20260509042930 | 12 | 232 | 9.7 | 29.0 | 0.00 | 0.00 | 0.00 | 84 | 1016.3 |
| 20260509042437 | 12 | 253 | 14.5 | 30.6 | 0.00 | 0.00 | 0.00 | 84 | 1016.3 |
| 20260509041926 | 12 | 276 | 16.1 | 35.4 | 0.00 | 0.00 | 0.00 | 84 | 1016.2 |
| 20260509041429 | 12 | 188 | 20.9 | 35.4 | 0.00 | 0.00 | 0.00 | 84 | 1016.2 |
| 20260509040935 | 12 | 275 | 14.5 | 30.6 | 0.00 | 0.00 | 0.00 | 84 | 1016.2 |
| 20260509040420 | 12 | 231 | 9.7 | 29.0 | 0.00 | 0.00 | 0.00 | 84 | 1016.2 |
| 20260509035926 | 12 | 292 | 12.9 | 25.7 | 0.00 | 0.00 | 0.00 | 84 | 1016.1 |
| 20260509035424 | 12 | 241 | 11.3 | 24.1 | 0.00 | 0.00 | 0.00 | 84 | 1016.1 |
| 20260509034932 | 12 | 257 | 9.7 | 25.7 | 0.00 | 0.00 | 0.00 | 84 | 1016.1 |
| 20260509034439 | 12 | 275 | 9.7 | 32.2 | 0.00 | 0.00 | 0.00 | 84 | 1016.2 |
| 20260509033923 | 12 | 240 | 12.9 | 32.2 | 0.00 | 0.00 | 0.00 | 83 | 1016.2 |
| 20260509033440 | 12 | 268 | 14.5 | 32.2 | 0.00 | 0.00 | 0.00 | 83 | 1016.2 |
| 20260509032925 | 12 | 250 | 16.1 | 32.2 | 0.00 | 0.00 | 0.00 | 83 | 1016.0 |
| 20260509032435 | 12 | 224 | 19.3 | 32.2 | 0.00 | 0.00 | 0.00 | 83 | 1016.0 |
| 20260509031940 | 12 | 281 | 14.5 | 25.7 | 0.00 | 0.00 | 0.00 | 83 | 1015.9 |
| 20260509031449 | 12 | 242 | 14.5 | 30.6 | 0.00 | 0.00 | 0.00 | 83 | 1015.9 |
| 20260509030935 | 12 | 236 | 14.5 | 30.6 | 0.00 | 0.00 | 0.00 | 83 | 1015.9 |
| 20260509030436 | 12 | 256 | 14.5 | 30.6 | 0.00 | 0.00 | 0.00 | 83 | 1015.8 |
| 20260509025921 | 12 | 219 | 14.5 | 27.4 | 0.00 | 0.00 | 0.00 | 83 | 1015.8 |
| 20260509025428 | 12 | 276 | 14.5 | 33.8 | 0.00 | 0.00 | 0.00 | 82 | 1015.8 |
| 20260509024933 | 12 | 306 | 14.5 | 33.8 | 0.00 | 0.00 | 0.00 | 82 | 1015.8 |
| 20260509024420 | 12 | 250 | 16.1 | 29.0 | 0.00 | 0.00 | 0.00 | 82 | 1015.8 |
| 20260509023926 | 12 | 240 | 14.5 | 38.6 | 0.00 | 0.00 | 0.00 | 82 | 1015.9 |
| 20260509023433 | 12 | 223 | 16.1 | 37.0 | 0.00 | 0.00 | 0.00 | 82 | 1015.8 |
| 20260509022938 | 12 | 213 | 12.9 | 33.8 | 0.00 | 0.00 | 0.00 | 82 | 1015.8 |
| 20260509022450 | 12 | 256 | 19.3 | 37.0 | 0.00 | 0.00 | 0.00 | 81 | 1015.9 |
| 20260509021935 | 12 | 272 | 19.3 | 37.0 | 0.00 | 0.00 | 0.00 | 81 | 1015.8 |
| 20260509021453 | 13 | 226 | 16.1 | 37.0 | 0.00 | 0.00 | 0.00 | 81 | 1015.8 |
| 20260509020921 | 13 | 256 | 17.7 | 43.5 | 0.00 | 0.00 | 0.00 | 81 | 1015.8 |
| 20260509020425 | 13 | 238 | 24.1 | 43.5 | 0.00 | 0.00 | 0.00 | 81 | 1015.8 |
| 20260509015951 | 13 | 294 | 20.9 | 41.8 | 0.00 | 0.00 | 0.00 | 80 | 1015.7 |
| 20260509015432 | 13 | 280 | 19.3 | 41.8 | 0.00 | 0.00 | 0.00 | 80 | 1015.8 |
| 20260509014938 | 13 | 245 | 20.9 | 38.6 | 0.00 | 0.00 | 0.00 | 80 | 1015.9 |
| 20260509014454 | 13 | 243 | 22.5 | 48.3 | 0.00 | 0.00 | 0.00 | 80 | 1015.8 |
| 20260509013939 | 13 | 252 | 19.3 | 48.3 | 0.00 | 0.00 | 0.00 | 80 | 1015.9 |
| 20260509013425 | 13 | 271 | 25.7 | 40.2 | 0.00 | 0.00 | 0.00 | 80 | 1016.0 |
| 20260509012930 | 13 | 292 | 22.5 | 37.0 | 0.00 | 0.00 | 0.00 | 79 | 1016.2 |
| 20260509012434 | 13 | 270 | 17.7 | 40.2 | 0.00 | 0.00 | 0.00 | 79 | 1016.1 |
| 20260509011921 | 13 | 277 | 24.1 | 43.5 | 0.00 | 0.00 | 0.00 | 79 | 1016.1 |
| 20260509011423 | 13 | 269 | 20.9 | 43.5 | 0.00 | 0.00 | 0.00 | 79 | 1016.1 |
| 20260509010951 | 13 | 284 | 22.5 | 40.2 | 0.00 | 0.00 | 0.00 | 79 | 1016.1 |
| 20260509010438 | 14 | 242 | 24.1 | 40.2 | 0.00 | 0.00 | 0.00 | 79 | 1016.1 |
| 20260509005923 | 14 | 298 | 19.3 | 37.0 | 0.00 | 0.00 | 0.00 | 79 | 1016.1 |
| 20260509005429 | 13 | 268 | 24.1 | 43.5 | 0.00 | 0.00 | 0.00 | 79 | 1016.1 |
| 20260509004933 | 13 | 275 | 19.3 | 43.5 | 0.00 | 0.00 | 0.00 | 79 | 1016.1 |
| 20260509004420 | 14 | 251 | 22.5 | 43.5 | 0.00 | 0.00 | 0.00 | 79 | 1016.2 |
| 20260509003922 | 13 | 277 | 22.5 | 54.7 | 0.00 | 0.00 | 0.00 | 79 | 1016.2 |
| 20260509003430 | 13 | 257 | 29.0 | 54.7 | 0.00 | 0.00 | 0.00 | 79 | 1016.1 |
| 20260509002938 | 13 | 257 | 27.4 | 46.7 | 0.00 | 0.00 | 0.00 | 79 | 1016.1 |
| 20260509002424 | 14 | 254 | 22.5 | 40.2 | 0.00 | 0.00 | 0.00 | 79 | 1016.2 |
| 20260509001927 | 13 | 254 | 20.9 | 43.5 | 0.00 | 0.00 | 0.00 | 79 | 1016.2 |
| 20260509001432 | 13 | 271 | 22.5 | 53.1 | 0.00 | 0.00 | 0.00 | 79 | 1016.2 |
| 20260509000937 | 13 | 258 | 29.0 | 53.1 | 0.00 | 0.00 | 0.00 | 79 | 1016.3 |
| 20260509000436 | 13 | 276 | 29.0 | 46.7 | 0.00 | 0.00 | 0.00 | 79 | 1016.2 |
| 20260508235942 | 14 | 268 | 27.4 | 46.7 | 0.00 | 0.00 | 0.00 | 79 | 1016.2 |
| 20260508235448 | 14 | 277 | 22.5 | 49.9 | 0.00 | 0.00 | 0.00 | 79 | 1016.2 |
| 20260508234931 | 14 | 270 | 29.0 | 46.7 | 0.00 | 0.00 | 0.00 | 78 | 1016.2 |
| 20260508234438 | 14 | 263 | 27.4 | 45.1 | 0.00 | 0.00 | 0.00 | 78 | 1016.2 |
| 20260508233925 | 14 | 251 | 27.4 | 46.7 | 0.00 | 0.00 | 0.00 | 78 | 1016.4 |
| 20260508233427 | 15 | 242 | 24.1 | 46.7 | 0.00 | 0.00 | 0.00 | 78 | 1016.4 |
| 20260508232934 | 15 | 237 | 24.1 | 45.1 | 0.00 | 0.00 | 0.00 | 78 | 1016.5 |
| 20260508232451 | 15 | 251 | 27.4 | 46.7 | 0.00 | 0.00 | 0.00 | 77 | 1016.7 |
| 20260508231938 | 15 | 265 | 22.5 | 48.3 | 0.00 | 0.00 | 0.00 | 77 | 1016.6 |
| 20260508231424 | 15 | 263 | 24.1 | 48.3 | 0.00 | 0.00 | 0.00 | 76 | 1016.7 |
| 20260508230931 | 15 | 251 | 19.3 | 41.8 | 0.00 | 0.00 | 0.00 | 77 | 1016.8 |
| 20260508230433 | 15 | 262 | 24.1 | 41.8 | 0.00 | 0.00 | 0.00 | 76 | 1016.8 |
| 20260508225935 | 15 | 262 | 16.1 | 33.8 | 0.00 | 0.00 | 0.00 | 76 | 1017.0 |
| 20260508225420 | 15 | 237 | 16.1 | 37.0 | 0.00 | 0.00 | 0.00 | 76 | 1017.2 |
| 20260508224930 | 15 | 261 | 20.9 | 37.0 | 0.00 | 0.00 | 0.00 | 76 | 1017.3 |
| 20260508224438 | 15 | 313 | 20.9 | 41.8 | 0.00 | 0.00 | 0.00 | 76 | 1017.4 |
| 20260508223924 | 15 | 237 | 16.1 | 32.2 | 0.00 | 0.00 | 0.00 | 76 | 1017.4 |
| 20260508223431 | 15 | 308 | 16.1 | 37.0 | 0.00 | 0.00 | 0.00 | 76 | 1017.4 |
| 20260508222935 | 15 | 270 | 20.9 | 37.0 | 0.00 | 0.00 | 0.00 | 76 | 1017.4 |
| 20260508222438 | 15 | 275 | 20.9 | 32.2 | 0.00 | 0.00 | 0.00 | 76 | 1017.5 |
| 20260508221942 | 16 | 315 | 14.5 | 35.4 | 0.00 | 0.00 | 0.00 | 76 | 1017.6 |
| 20260508221428 | 15 | 284 | 20.9 | 35.4 | 0.00 | 0.00 | 0.00 | 76 | 1017.7 |
| 20260508220936 | 15 | 282 | 20.9 | 35.4 | 0.00 | 0.00 | 0.00 | 76 | 1017.6 |
| 20260508220424 | 15 | 270 | 20.9 | 41.8 | 0.00 | 0.00 | 0.00 | 76 | 1017.7 |
| 20260508215959 | 15 | 282 | 24.1 | 41.8 | 0.00 | 0.00 | 0.00 | 76 | 1017.8 |
| 20260508215426 | 15 | 294 | 22.5 | 38.6 | 0.00 | 0.00 | 0.00 | 76 | 1017.9 |
| 20260508214935 | 15 | 275 | 20.9 | 37.0 | 0.00 | 0.00 | 0.00 | 76 | 1017.9 |
| 20260508214437 | 15 | 299 | 20.9 | 40.2 | 0.00 | 0.00 | 0.00 | 76 | 1017.9 |
| 20260508213925 | 15 | 272 | 20.9 | 40.2 | 0.00 | 0.00 | 0.00 | 77 | 1018.0 |
| 20260508213458 | 15 | 223 | 22.5 | 40.2 | 0.00 | 0.00 | 0.00 | 77 | 1018.0 |
| 20260508212924 | 15 | 265 | 25.7 | 41.8 | 0.00 | 0.00 | 0.00 | 77 | 1018.0 |
| 20260508212431 | 15 | 278 | 27.4 | 41.8 | 0.00 | 0.00 | 0.00 | 77 | 1018.0 |
| 20260508211938 | 15 | 244 | 25.7 | 38.6 | 0.00 | 0.00 | 0.00 | 76 | 1018.1 |
| 20260508211423 | 15 | 268 | 22.5 | 37.0 | 0.00 | 0.00 | 0.00 | 76 | 1018.1 |
| 20260508210927 | 15 | 251 | 19.3 | 40.2 | 0.00 | 0.00 | 0.00 | 77 | 1018.2 |
| 20260508210435 | 15 | 259 | 20.9 | 40.2 | 0.00 | 0.00 | 0.00 | 77 | 1018.2 |
| 20260508205923 | 15 | 229 | 24.1 | 37.0 | 0.00 | 0.00 | 0.00 | 77 | 1018.2 |
| 20260508205432 | 15 | 231 | 20.9 | 37.0 | 0.00 | 0.00 | 0.00 | 76 | 1018.2 |
| 20260508204922 | 15 | 243 | 19.3 | 35.4 | 0.00 | 0.00 | 0.00 | 76 | 1018.3 |
| 20260508204428 | 15 | 277 | 16.1 | 30.6 | 0.00 | 0.00 | 0.00 | 76 | 1018.3 |
| 20260508203935 | 15 | 268 | 17.7 | 30.6 | 0.00 | 0.00 | 0.00 | 76 | 1018.4 |
| 20260508203422 | 15 | 285 | 16.1 | 29.0 | 0.00 | 0.00 | 0.00 | 76 | 1018.4 |
| 20260508202924 | 15 | 268 | 17.7 | 30.6 | 0.00 | 0.00 | 0.00 | 76 | 1018.5 |
| 20260508202434 | 15 | 278 | 16.1 | 30.6 | 0.00 | 0.00 | 0.00 | 77 | 1018.5 |
| 20260508201951 | 15 | 257 | 16.1 | 32.2 | 0.00 | 0.00 | 0.00 | 76 | 1018.6 |
| 20260508201436 | 15 | 217 | 14.5 | 32.2 | 0.00 | 0.00 | 0.00 | 76 | 1018.6 |
| 20260508200942 | 15 | 224 | 16.1 | 27.4 | 0.00 | 0.00 | 0.00 | 77 | 1018.6 |
| 20260508200455 | 15 | 222 | 12.9 | 27.4 | 0.00 | 0.00 | 0.00 | 77 | 1018.6 |
| 20260508195939 | 15 | 233 | 14.5 | 32.2 | 0.00 | 0.00 | 0.00 | 77 | 1018.7 |
| 20260508195422 | 15 | 252 | 17.7 | 32.2 | 0.00 | 0.00 | 0.00 | 77 | 1018.8 |
| 20260508194959 | 15 | 249 | 16.1 | 27.4 | 0.00 | 0.00 | 0.00 | 77 | 1018.7 |
| 20260508194424 | 15 | 268 | 14.5 | 27.4 | 0.00 | 0.00 | 0.00 | 77 | 1018.7 |
| 20260508193931 | 15 | 316 | 16.1 | 29.0 | 0.00 | 0.00 | 0.00 | 78 | 1018.7 |
| 20260508193437 | 14 | 255 | 16.1 | 33.8 | 0.00 | 0.00 | 0.00 | 78 | 1018.9 |
| 20260508192926 | 14 | 207 | 19.3 | 33.8 | 0.00 | 0.00 | 0.00 | 78 | 1018.8 |
| 20260508192434 | 14 | 294 | 14.5 | 30.6 | 0.00 | 0.00 | 0.00 | 78 | 1018.8 |
| 20260508191922 | 14 | 216 | 16.1 | 30.6 | 0.00 | 0.00 | 0.00 | 78 | 1018.8 |
| 20260508191444 | 14 | 287 | 16.1 | 30.6 | 0.00 | 0.00 | 0.00 | 79 | 1018.9 |
| 20260508190930 | 14 | 282 | 14.5 | 27.4 | 0.00 | 0.00 | 0.00 | 79 | 1019.0 |
| 20260508190436 | 14 | 263 | 14.5 | 27.4 | 0.00 | 0.00 | 0.00 | 79 | 1019.0 |
| 20260508190000 | 14 | 284 | 16.1 | 35.4 | 0.00 | 0.00 | 0.00 | 80 | 1019.1 |
| 20260508185422 | 13 | 249 | 17.7 | 35.4 | 0.00 | 0.00 | 0.00 | 80 | 1019.0 |
| 20260508184927 | 13 | 276 | 17.7 | 29.0 | 0.00 | 0.00 | 0.00 | 80 | 1019.0 |
| 20260508184431 | 13 | 195 | 14.5 | 30.6 | 0.00 | 0.00 | 0.00 | 81 | 1019.0 |
| 20260508183921 | 13 | 261 | 16.1 | 30.6 | 0.00 | 0.00 | 0.00 | 81 | 1019.0 |
| 20260508183426 | 13 | 239 | 12.9 | 33.8 | 0.00 | 0.00 | 0.00 | 82 | 1019.1 |
| 20260508182932 | 13 | 273 | 17.7 | 33.8 | 0.00 | 0.00 | 0.00 | 82 | 1019.2 |
| 20260508182420 | 13 | 311 | 12.9 | 29.0 | 0.00 | 0.00 | 0.00 | 82 | 1019.2 |
| 20260508181926 | 13 | 249 | 16.1 | 27.4 | 0.00 | 0.00 | 0.00 | 82 | 1019.1 |
| 20260508181450 | 13 | 232 | 14.5 | 24.1 | 0.00 | 0.00 | 0.00 | 83 | 1019.3 |
| 20260508180936 | 13 | 310 | 8.0 | 20.9 | 0.00 | 0.00 | 0.00 | 83 | 1019.1 |
| 20260508180450 | 13 | 237 | 9.7 | 19.3 | 0.00 | 0.00 | 0.00 | 84 | 1019.1 |
| 20260508175934 | 12 | 286 | 6.4 | 22.5 | 0.00 | 0.00 | 0.00 | 84 | 1019.2 |
| 20260508175437 | 12 | 261 | 6.4 | 22.5 | 0.00 | 0.00 | 0.00 | 84 | 1019.2 |
| 20260508174922 | 12 | 40 | 8.0 | 19.3 | 0.00 | 0.00 | 0.00 | 84 | 1019.3 |
| 20260508174424 | 12 | 222 | 11.3 | 17.7 | 0.00 | 0.00 | 0.00 | 84 | 1019.3 |
| 20260508173932 | 12 | 299 | 9.7 | 20.9 | 0.00 | 0.00 | 0.00 | 84 | 1019.3 |
| 20260508173438 | 12 | 319 | 9.7 | 20.9 | 0.00 | 0.00 | 0.00 | 84 | 1019.4 |
| 20260508172954 | 12 | 255 | 6.4 | 19.3 | 0.00 | 0.00 | 0.00 | 84 | 1019.4 |
| 20260508172439 | 12 | 290 | 9.7 | 19.3 | 0.00 | 0.00 | 0.00 | 84 | 1019.5 |
| 20260508171925 | 12 | 256 | 8.0 | 24.1 | 0.00 | 0.00 | 0.00 | 84 | 1019.4 |
| 20260508171431 | 12 | 316 | 14.5 | 24.1 | 0.00 | 0.00 | 0.00 | 84 | 1019.4 |
| 20260508170920 | 12 | 264 | 11.3 | 22.5 | 0.00 | 0.00 | 0.00 | 83 | 1019.4 |
| 20260508170421 | 12 | 319 | 11.3 | 22.5 | 0.00 | 0.00 | 0.00 | 83 | 1019.4 |
| 20260508165944 | 12 | 298 | 9.7 | 19.3 | 0.00 | 0.00 | 0.00 | 83 | 1019.3 |
| 20260508165451 | 12 | 310 | 11.3 | 22.5 | 0.00 | 0.00 | 0.00 | 83 | 1019.3 |
| 20260508164935 | 12 | 268 | 11.3 | 27.4 | 0.00 | 0.00 | 0.00 | 83 | 1019.2 |
| 20260508164442 | 12 | 295 | 12.9 | 29.0 | 0.00 | 0.00 | 0.00 | 83 | 1019.3 |
| 20260508163923 | 12 | 249 | 16.1 | 29.0 | 0.00 | 0.00 | 0.00 | 82 | 1019.3 |
| 20260508163429 | 12 | 277 | 12.9 | 25.7 | 0.00 | 0.00 | 0.00 | 82 | 1019.2 |
| 20260508162937 | 12 | 274 | 11.3 | 29.0 | 0.00 | 0.00 | 0.00 | 82 | 1019.2 |
| 20260508162424 | 12 | 280 | 16.1 | 32.2 | 0.00 | 0.00 | 0.00 | 82 | 1019.2 |
| 20260508161931 | 12 | 275 | 17.7 | 32.2 | 0.00 | 0.00 | 0.00 | 82 | 1019.2 |
| 20260508161438 | 12 | 227 | 12.9 | 24.1 | 0.00 | 0.00 | 0.00 | 82 | 1019.1 |
| 20260508160924 | 12 | 265 | 9.7 | 25.7 | 0.00 | 0.00 | 0.00 | 82 | 1019.1 |
| 20260508160429 | 12 | 254 | 12.9 | 25.7 | 0.00 | 0.00 | 0.00 | 82 | 1019.0 |
| 20260508155930 | 12 | 285 | 9.7 | 22.5 | 0.00 | 0.00 | 0.00 | 83 | 1018.8 |
| 20260508155437 | 12 | 287 | 12.9 | 25.7 | 0.00 | 0.00 | 0.00 | 83 | 1018.8 |
| 20260508154922 | 12 | 268 | 14.5 | 25.7 | 0.00 | 0.00 | 0.00 | 83 | 1018.7 |
| 20260508154428 | 12 | 251 | 9.7 | 22.5 | 0.00 | 0.00 | 0.00 | 84 | 1018.8 |
| 20260508153933 | 12 | 270 | 14.5 | 22.5 | 0.00 | 0.00 | 0.00 | 84 | 1018.7 |
| 20260508153439 | 12 | 258 | 9.7 | 24.1 | 0.00 | 0.00 | 0.00 | 84 | 1018.8 |
| 20260508152954 | 12 | 277 | 6.4 | 24.1 | 0.00 | 0.00 | 0.00 | 84 | 1018.7 |
| 20260508152436 | 11 | 268 | 8.0 | 20.9 | 0.00 | 0.00 | 0.00 | 84 | 1018.7 |
| 20260508151924 | 11 | 294 | 8.0 | 24.1 | 0.00 | 0.00 | 0.00 | 84 | 1018.7 |
| 20260508151500 | 11 | 295 | 11.3 | 24.1 | 0.00 | 0.00 | 0.00 | 85 | 1018.7 |
| 20260508150924 | 11 | 225 | 8.0 | 17.7 | 0.00 | 0.00 | 0.00 | 84 | 1018.7 |
| 20260508150450 | 11 | 291 | 9.7 | 30.6 | 0.00 | 0.00 | 0.00 | 85 | 1018.7 |
| 20260508145934 | 11 | 303 | 17.7 | 30.6 | 0.00 | 0.00 | 0.00 | 85 | 1018.7 |
| 20260508145435 | 11 | 256 | 9.7 | 30.6 | 0.00 | 0.00 | 0.00 | 85 | 1018.7 |
| 20260508144937 | 11 | 283 | 11.3 | 30.6 | 0.00 | 0.00 | 0.00 | 85 | 1018.7 |
| 20260508144424 | 11 | 280 | 9.7 | 22.5 | 0.00 | 0.00 | 0.00 | 85 | 1018.7 |
| 20260508143932 | 11 | 282 | 12.9 | 27.4 | 0.00 | 0.00 | 0.00 | 85 | 1018.7 |
| 20260508143438 | 11 | 272 | 12.9 | 27.4 | 0.00 | 0.00 | 0.00 | 85 | 1018.7 |
| 20260508142921 | 11 | 285 | 12.9 | 25.7 | 0.00 | 0.00 | 0.00 | 85 | 1018.6 |
| 20260508142427 | 11 | 264 | 12.9 | 25.7 | 0.00 | 0.00 | 0.00 | 85 | 1018.6 |
| 20260508141935 | 11 | 211 | 9.7 | 22.5 | 0.00 | 0.00 | 0.00 | 85 | 1018.6 |
| 20260508141436 | 11 | 302 | 9.7 | 30.6 | 0.00 | 0.00 | 0.00 | 85 | 1018.5 |
| 20260508140924 | 11 | 294 | 12.9 | 30.6 | 0.00 | 0.00 | 0.00 | 85 | 1018.5 |
| 20260508140431 | 11 | 306 | 16.1 | 25.7 | 0.00 | 0.00 | 0.00 | 85 | 1018.5 |
| 20260508135936 | 11 | 252 | 9.7 | 33.8 | 0.00 | 0.00 | 0.00 | 85 | 1018.5 |
| 20260508135422 | 11 | 278 | 12.9 | 33.8 | 0.00 | 0.00 | 0.00 | 85 | 1018.4 |
| 20260508134928 | 11 | 232 | 12.9 | 35.4 | 0.00 | 0.00 | 0.00 | 85 | 1018.3 |
| 20260508134433 | 11 | 268 | 17.7 | 35.4 | 0.00 | 0.00 | 0.00 | 85 | 1018.3 |
| 20260508133934 | 11 | 263 | 17.7 | 35.4 | 0.00 | 0.00 | 0.00 | 85 | 1018.3 |
| 20260508133440 | 11 | 249 | 17.7 | 37.0 | 0.00 | 0.00 | 0.00 | 85 | 1018.2 |
| 20260508132924 | 11 | 275 | 22.5 | 37.0 | 0.00 | 0.00 | 0.00 | 84 | 1018.2 |
| 20260508132501 | 11 | 252 | 16.1 | 37.0 | 0.00 | 0.00 | 0.00 | 84 | 1018.2 |
| 20260508131925 | 11 | 280 | 17.7 | 38.6 | 0.00 | 0.00 | 0.00 | 85 | 1018.2 |
| 20260508131500 | 11 | 256 | 19.3 | 38.6 | 0.00 | 0.00 | 0.00 | 85 | 1018.2 |
| 20260508130925 | 11 | 258 | 9.7 | 32.2 | 0.00 | 0.00 | 0.00 | 84 | 1018.2 |
| 20260508130428 | 11 | 230 | 8.0 | 32.2 | 0.00 | 0.00 | 0.00 | 85 | 1018.2 |
| 20260508125932 | 11 | 222 | 9.7 | 22.5 | 0.00 | 0.00 | 0.00 | 85 | 1018.3 |
| 20260508125419 | 11 | 233 | 8.0 | 24.1 | 0.00 | 0.00 | 0.00 | 85 | 1018.2 |
| 20260508124927 | 11 | 268 | 11.3 | 29.0 | 0.00 | 0.00 | 0.00 | 84 | 1018.2 |
| 20260508124436 | 11 | 275 | 14.5 | 29.0 | 0.00 | 0.00 | 0.00 | 84 | 1018.2 |
| 20260508123922 | 11 | 211 | 11.3 | 29.0 | 0.00 | 0.00 | 0.00 | 84 | 1018.1 |
| 20260508123430 | 11 | 307 | 14.5 | 33.8 | 0.00 | 0.00 | 0.00 | 84 | 1018.2 |
| 20260508122932 | 11 | 277 | 17.7 | 33.8 | 0.00 | 0.00 | 0.00 | 84 | 1018.1 |
| 20260508122438 | 11 | 284 | 14.5 | 33.8 | 0.00 | 0.00 | 0.00 | 84 | 1018.1 |
| 20260508121956 | 11 | 310 | 8.0 | 17.7 | 0.00 | 0.00 | 0.00 | 84 | 1018.2 |
| 20260508121422 | 11 | 101 | 3.2 | 24.1 | 0.00 | 0.00 | 0.00 | 84 | 1018.2 |
| 20260508120931 | 11 | 209 | 9.7 | 25.7 | 0.00 | 0.00 | 0.00 | 85 | 1018.1 |
| 20260508120436 | 11 | 276 | 14.5 | 35.4 | 0.00 | 0.00 | 0.00 | 85 | 1018.1 |
| 20260508115923 | 11 | 261 | 8.0 | 35.4 | 0.00 | 0.00 | 0.00 | 85 | 1018.0 |
| 20260508115430 | 11 | 190 | 14.5 | 32.2 | 0.00 | 0.00 | 0.00 | 85 | 1018.0 |
| 20260508114935 | 11 | 314 | 12.9 | 32.2 | 0.00 | 0.00 | 0.00 | 85 | 1018.0 |
| 20260508114421 | 11 | 244 | 14.5 | 25.7 | 0.00 | 0.00 | 0.00 | 85 | 1018.2 |
| 20260508113958 | 11 | 313 | 6.4 | 22.5 | 0.00 | 0.00 | 0.00 | 85 | 1018.0 |
| 20260508113443 | 11 | 273 | 11.3 | 29.0 | 0.00 | 0.00 | 0.00 | 85 | 1018.0 |
| 20260508112928 | 11 | 251 | 12.9 | 29.0 | 0.00 | 0.00 | 0.00 | 85 | 1018.1 |
| 20260508112437 | 11 | 282 | 14.5 | 30.6 | 0.00 | 0.00 | 0.00 | 85 | 1018.2 |
| 20260508111921 | 11 | 296 | 16.1 | 30.6 | 0.00 | 0.00 | 0.00 | 85 | 1018.1 |
| 20260508111446 | 11 | 247 | 12.9 | 33.8 | 0.00 | 0.00 | 0.00 | 85 | 1018.0 |
| 20260508110934 | 11 | 263 | 9.7 | 27.4 | 0.00 | 0.00 | 0.00 | 85 | 1018.1 |
| 20260508110420 | 11 | 284 | 14.5 | 25.7 | 0.00 | 0.00 | 0.00 | 85 | 1018.1 |
| 20260508105928 | 11 | 231 | 9.7 | 27.4 | 0.00 | 0.00 | 0.00 | 85 | 1018.1 |
| 20260508105435 | 11 | 207 | 9.7 | 32.2 | 0.00 | 0.00 | 0.00 | 85 | 1018.0 |
| 20260508104922 | 11 | 280 | 17.7 | 32.2 | 0.00 | 0.00 | 0.00 | 85 | 1018.0 |
| 20260508104430 | 11 | 283 | 11.3 | 27.4 | 0.00 | 0.00 | 0.00 | 85 | 1018.2 |
| 20260508103936 | 11 | 273 | 9.7 | 27.4 | 0.00 | 0.00 | 0.00 | 85 | 1018.0 |
| 20260508103443 | 11 | 294 | 11.3 | 33.8 | 0.00 | 0.00 | 0.00 | 85 | 1018.1 |
| 20260508102928 | 11 | 278 | 16.1 | 33.8 | 0.00 | 0.00 | 0.00 | 85 | 1018.0 |
| 20260508102438 | 11 | 224 | 12.9 | 24.1 | 0.00 | 0.00 | 0.00 | 85 | 1018.0 |
| 20260508101924 | 11 | 310 | 12.9 | 30.6 | 0.00 | 0.00 | 0.00 | 85 | 1018.0 |
| 20260508101432 | 11 | 275 | 14.5 | 30.6 | 0.00 | 0.00 | 0.00 | 85 | 1018.0 |
| 20260508100921 | 11 | 278 | 9.7 | 24.1 | 0.00 | 0.00 | 0.00 | 85 | 1018.1 |
| 20260508100423 | 11 | 250 | 12.9 | 24.1 | 0.00 | 0.00 | 0.00 | 85 | 1018.1 |
| 20260508095928 | 11 | 261 | 11.3 | 27.4 | 0.00 | 0.00 | 0.00 | 85 | 1018.1 |
| 20260508095436 | 11 | 322 | 9.7 | 29.0 | 0.00 | 0.00 | 0.00 | 85 | 1018.2 |
| 20260508094944 | 11 | 197 | 12.9 | 29.0 | 0.00 | 0.00 | 0.00 | 85 | 1018.1 |
| 20260508094439 | 11 | 263 | 6.4 | 24.1 | 0.00 | 0.00 | 0.00 | 85 | 1018.2 |
| 20260508093926 | 11 | 295 | 3.2 | 27.4 | 0.00 | 0.00 | 0.00 | 85 | 1018.2 |
| 20260508093435 | 11 | 242 | 12.9 | 27.4 | 0.00 | 0.00 | 0.00 | 85 | 1018.1 |
| 20260508092939 | 11 | 212 | 6.4 | 20.9 | 0.00 | 0.00 | 0.00 | 85 | 1018.2 |
| 20260508092457 | 11 | 208 | 11.3 | 20.9 | 0.00 | 0.00 | 0.00 | 85 | 1018.3 |
| 20260508091921 | 11 | 261 | 8.0 | 20.9 | 0.00 | 0.00 | 0.00 | 85 | 1018.2 |
| 20260508091430 | 11 | 240 | 9.7 | 20.9 | 0.00 | 0.00 | 0.00 | 85 | 1018.2 |
| 20260508090937 | 11 | 197 | 6.4 | 19.3 | 0.00 | 0.00 | 0.00 | 85 | 1018.2 |
| 20260508090424 | 11 | 185 | 6.4 | 22.5 | 0.00 | 0.00 | 0.00 | 85 | 1018.1 |
| 20260508085931 | 11 | 1 | 4.8 | 22.5 | 0.00 | 0.00 | 0.00 | 85 | 1018.1 |
| 20260508085419 | 11 | 255 | 9.7 | 20.9 | 0.00 | 0.00 | 0.00 | 85 | 1018.0 |
| 20260508084921 | 11 | 264 | 4.8 | 22.5 | 0.00 | 0.00 | 0.00 | 85 | 1018.1 |
| 20260508084450 | 11 | 360 | 11.3 | 22.5 | 0.00 | 0.00 | 0.00 | 84 | 1018.2 |
| 20260508083936 | 11 | 249 | 6.4 | 20.9 | 0.00 | 0.00 | 0.00 | 84 | 1018.2 |
| 20260508083422 | 11 | 247 | 8.0 | 22.5 | 0.00 | 0.00 | 0.00 | 84 | 1018.1 |
| 20260508082931 | 11 | 296 | 8.0 | 22.5 | 0.00 | 0.00 | 0.00 | 84 | 1018.1 |
| 20260508082437 | 11 | 196 | 6.4 | 29.0 | 0.00 | 0.00 | 0.00 | 84 | 1018.2 |
| 20260508081924 | 11 | 301 | 12.9 | 29.0 | 0.00 | 0.00 | 0.00 | 84 | 1018.2 |
| 20260508081457 | 11 | 342 | 11.3 | 24.1 | 0.00 | 0.00 | 0.00 | 85 | 1018.2 |
| 20260508080922 | 11 | 200 | 8.0 | 20.9 | 0.00 | 0.00 | 0.00 | 85 | 1018.1 |
| 20260508080450 | 11 | 242 | 8.0 | 22.5 | 0.00 | 0.00 | 0.00 | 85 | 1018.2 |
| 20260508075937 | 11 | 268 | 9.7 | 25.7 | 0.00 | 0.00 | 0.00 | 84 | 1018.2 |